Temperature
21 21 21 21 18 18 19 20 21 21 21 22 21 20 19 19 19 18 18 18 18 18 18 17 18 17 17 17 17 17 17 17 17 17 17 17 17 17 17 17 17 17 17 17 17 17 17 17 17
21 21 21 20 18 18 19 20 20 21 22 22 21 20 19 18 18 18 17 18 18 18 18 18 18 17 17 17 17 17 17 17 17 17 17 17 17 17 17 17 17 17 17 17 17 17 17 17 17
21 21 21 18 18 19 20 21 21 22 23 22 21 20 19 19 18 18 18 18 18 18 18 18 17 17 17 17 17 17 17 17 17 17 17 17 17 17 17 17 17 17 17 17 17 17 17 17 17
21 21 20 18 19 20 20 20 21 22 22 22 20 19 19 19 18 18 18 18 18 18 18 18 18 17 17 17 17 17 17 17 17 17 17 17 17 17 17 17 17 17 17 17 17 17 17 17 17
21 21 18 18 20 20 20 21 22 21 21 21 20 18 18 18 18 18 18 18 18 18 18 17 17 17 17 17 17 17 17 17 17 17 17 17 17 17 17 17 17 17 17 17 17 16 16 16 16
22 19 18 18 20 21 21 22 22 21 21 20 19 18 18 18 18 18 18 18 18 18 17 17 17 17 17 17 17 17 17 17 17 17 17 16 17 17 17 17 17 17 16 16 16 16 16 16 16
21 18 18 19 20 20 21 22 21 20 20 20 20 18 17 18 18 18 18 18 17 17 17 17 17 17 17 17 17 17 17 17 17 16 16 16 16 16 16 16 16 16 16 16 16 16 16 16 16
22 18 19 19 20 20 21 22 22 21 20 20 20 18 17 18 18 18 18 17 17 17 17 17 17 17 17 17 17 17 17 16 16 16 16 16 16 16 16 16 16 16 16 16 16 16 16 16 16
22 18 18 19 20 20 21 21 21 21 20 20 20 19 19 18 18 18 17 17 17 17 17 17 17 17 17 17 17 17 16 16 16 16 16 16 16 16 16 16 16 16 16 16 16 16 16 16 16
21 18 19 20 20 20 21 21 21 20 19 19 19 19 19 18 18 18 18 17 17 17 17 17 17 17 17 17 17 16 16 16 16 16 16 16 16 16 16 16 16 16 16 16 16 16 16 16 16
20 19 20 21 22 21 21 20 21 19 18 18 18 18 18 18 18 18 18 18 17 17 17 17 17 17 17 17 17 16 16 16 16 16 16 16 16 16 16 16 16 16 16 16 16 16 16 16 16
21 21 21 22 22 22 21 21 20 19 19 19 19 19 18 18 18 18 18 17 17 17 17 17 17 17 17 16 16 16 16 16 16 16 16 16 16 16 16 16 16 16 15 15 15 16 16 15 15
21 21 22 22 22 21 21 20 20 19 19 19 19 18 18 18 18 18 18 17 17 17 17 17 17 17 17 16 16 16 16 16 16 16 16 16 16 16 16 15 15 15 15 15 15 15 15 15 15
21 21 21 22 22 21 20 19 19 19 19 19 18 18 18 18 18 18 18 17 17 17 17 17 17 17 16 16 16 16 16 16 16 16 16 16 16 15 15 15 15 15 15 15 15 15 15 15 15
22 21 21 21 21 21 20 19 18 19 19 18 18 18 18 18 18 18 17 17 17 17 17 17 17 16 16 16 16 16 16 16 16 15 15 15 15 15 15 15 15 15 15 15 15 15 15 15 15
21 20 19 20 20 21 19 18 18 19 19 18 18 18 18 18 18 18 18 17 17 17 17 17 16 16 16 16 16 16 16 16 16 16 15 15 15 15 15 15 15 15 15 15 15 15 15 15 15
19 18 19 20 20 20 19 18 18 19 18 17 18 18 18 17 17 18 18 17 17 17 17 17 16 16 16 16 16 16 16 16 15 15 15 15 15 15 15 15 15 15 15 15 15 15 15 15 15
19 19 19 19 20 19 18 18 17 18 18 17 17 18 17 17 17 17 17 17 17 17 17 17 16 16 16 16 16 16 15 15 15 15 15 15 15 15 15 15 15 15 15 15 15 15 15 15 15
20 20 19 19 20 19 18 18 17 18 18 17 17 17 17 17 18 17 17 17 17 17 17 17 16 16 16 16 16 16 15 15 15 15 15 15 15 15 15 15 15 15 15 15 15 15 15 15 15
20 19 19 20 20 19 18 18 17 17 17 17 17 17 17 17 17 17 17 17 17 17 17 16 16 16 16 16 16 15 15 15 15 15 15 15 15 14 14 15 15 14 14 14 14 14 14 14 14
20 19 19 19 20 19 18 17 17 17 17 17 18 18 18 17 17 17 17 17 17 17 17 16 16 16 16 16 15 15 15 15 15 15 15 14 14 14 14 14 14 14 14 14 14 14 14 14 14
19 20 21 20 19 17 18 16 16 16 16 16 17 17 17 17 17 17 17 17 17 16 16 16 16 16 16 15 15 15 15 15 15 15 14 14 14 14 14 14 14 14 14 14 14 14 14 14 14
20 21 21 20 18 17 17 16 15 16 16 16 16 17 17 17 17 17 17 17 17 16 16 16 16 16 16 15 15 15 15 15 15 14 14 14 14 14 14 14 14 14 14 14 14 14 14 14 14
21 20 19 16 16 16 17 16 16 15 16 16 16 17 17 17 17 17 17 17 17 16 16 16 16 16 15 15 15 15 15 15 14 14 14 14 14 14 14 14 14 14 14 14 14 14 14 13 13
19 17 16 16 15 16 17 16 16 16 17 17 17 17 17 17 17 17 17 16 16 16 16 16 16 15 15 15 15 15 15 14 14 14 14 14 14 14 14 13 13 13 13 13 13 13 13 13 13
19 17 16 16 16 15 16 16 16 17 17 18 18 18 17 17 17 17 17 16 16 16 16 16 15 15 15 15 15 14 14 14 14 14 14 14 14 14 13 13 13 13 13 13 13 13 13 13 13
19 17 17 16 16 16 15 16 17 17 17 17 17 17 17 17 17 17 16 16 16 16 16 15 15 15 15 15 14 14 14 14 14 14 14 13 13 13 13 13 13 13 13 13 13 13 13 13 13
20 18 15 16 16 15 16 16 16 17 16 16 16 16 17 17 17 17 16 16 16 16 16 15 15 15 15 15 14 14 14 14 14 13 13 13 13 13 13 13 13 13 13 13 13 13 13 12 12
19 18 16 14 15 15 15 16 17 17 17 16 16 17 17 17 16 16 16 16 16 16 15 15 15 15 15 14 14 14 14 13 13 13 13 13 13 13 13 13 13 13 12 12 12 12 12 12 12
19 18 16 15 15 14 14 15 17 17 17 17 16 16 17 17 16 16 16 16 16 15 15 15 15 14 14 14 14 14 13 13 13 13 13 13 13 13 13 12 12 12 12 12 12 12 12 12 12
Wind_Speed
3 0 3 3 5 5 2 1 2 3 4 5 8 10 9 6 4 5 3 7 8 6 6 8 8 8 8 8 8 8 8 8 9 10 11 11 11 11 11 12 12 12 12 12 12 12 12 11 11
1 1 3 4 5 4 2 0 4 4 5 6 8 8 8 6 5 7 4 7 8 7 7 8 8 8 8 8 8 7 7 8 9 10 11 11 10 11 11 11 11 12 12 12 12 12 12 12 12
1 1 3 4 3 3 2 1 4 4 5 5 5 6 5 4 5 5 6 9 8 7 7 9 9 9 9 8 7 6 7 8 10 10 11 11 11 11 11 11 11 11 11 11 11 11 11 11 11
3 4 4 5 4 1 3 3 4 5 5 6 7 6 4 3 3 6 9 10 9 6 8 9 9 9 9 8 7 7 8 10 11 12 12 11 11 11 11 11 11 11 11 11 11 10 10 11 11
4 4 5 4 2 1 2 3 5 6 4 4 7 6 4 4 7 10 10 10 9 6 7 9 9 9 9 9 9 9 10 12 12 12 12 11 11 11 11 11 11 11 11 10 10 10 10 10 11
4 4 5 2 1 1 2 2 6 7 6 6 7 6 3 2 7 8 10 8 8 7 6 8 9 10 9 9 10 11 12 13 13 12 11 11 11 11 11 11 11 10 10 10 9 9 9 10 11
4 4 3 2 2 1 1 1 5 6 6 3 5 6 3 2 4 7 8 8 7 7 6 5 6 7 8 9 9 10 11 11 11 11 11 10 10 10 10 10 10 10 9 9 9 8 9 10 11
5 4 2 1 2 1 1 2 4 6 5 4 5 7 5 5 5 7 7 7 6 5 4 4 4 5 5 6 7 8 9 9 9 9 9 9 9 9 9 8 8 8 8 8 7 7 8 9 10
5 5 1 1 2 1 2 4 3 5 6 5 5 5 7 9 8 8 6 5 4 5 4 3 3 3 3 4 5 6 6 6 6 6 7 7 6 6 6 6 7 7 7 6 7 7 8 9 10
5 4 2 2 3 3 3 4 4 5 7 5 7 7 8 9 9 8 7 6 5 4 4 3 3 3 3 3 4 3 4 4 4 5 5 5 5 5 4 5 5 5 5 6 6 7 8 7 7
4 5 3 2 3 4 4 4 4 7 4 4 8 9 9 8 7 7 6 5 5 4 4 4 3 3 3 3 3 2 3 3 3 4 6 5 5 4 4 3 3 4 5 5 5 6 6 6 6
3 2 3 2 3 4 4 4 5 5 4 6 9 11 8 8 7 6 5 4 3 4 3 3 4 3 3 3 3 2 2 2 2 3 5 5 4 3 2 2 2 2 3 3 3 3 5 6 7
3 2 2 3 5 5 7 5 5 4 6 8 10 10 9 8 6 4 5 5 4 4 3 3 4 4 3 3 2 2 2 2 3 3 4 6 4 3 2 2 2 2 3 3 3 3 4 4 5
4 3 3 2 3 4 7 4 4 3 6 9 10 8 7 7 6 5 4 4 4 3 3 3 4 3 4 3 2 2 2 2 3 3 4 5 5 4 3 2 2 2 3 3 4 4 4 3 4
3 2 0 1 2 3 6 3 2 5 7 8 7 7 7 6 5 6 6 6 5 4 3 3 3 3 4 3 2 2 2 3 3 3 4 5 5 5 4 3 2 1 3 5 5 4 4 4 4
2 2 1 4 3 3 7 3 4 5 8 7 6 5 5 5 5 5 6 5 4 4 3 3 4 4 4 3 2 2 3 4 3 4 4 5 5 5 4 3 2 3 4 4 3 3 3 3 3
2 1 3 3 3 4 5 4 5 5 9 8 7 6 5 5 4 4 6 6 6 5 4 4 4 4 4 3 3 3 3 3 3 4 4 4 5 5 4 3 2 4 4 3 3 3 3 2 2
4 3 3 4 3 5 5 4 5 6 8 8 7 6 6 6 5 5 6 6 5 5 5 5 4 4 4 3 3 3 3 2 3 3 3 4 4 5 4 3 3 4 3 3 3 3 2 2 2
4 3 3 4 4 5 5 5 5 6 6 7 6 6 7 6 5 5 5 6 5 4 4 4 4 3 3 2 2 2 1 1 1 2 3 4 3 4 4 3 3 2 2 2 3 3 3 2 2
3 3 3 2 3 4 4 4 4 5 8 9 9 8 8 6 5 5 5 5 5 4 4 4 4 3 3 3 2 2 2 1 1 1 2 3 3 3 4 3 2 2 2 3 2 2 2 1 1
3 4 4 3 0 2 2 3 3 3 4 5 7 7 8 10 10 8 6 5 5 5 5 5 4 4 3 3 3 2 2 2 2 1 1 1 2 2 3 3 3 3 3 2 1 2 3 1 1
3 5 4 4 2 2 2 2 6 5 4 6 7 7 7 8 8 7 7 6 6 5 4 4 4 4 3 4 4 4 3 2 2 1 1 0 1 2 2 3 3 3 2 2 2 2 2 3 1
5 4 2 2 2 1 1 2 6 2 5 8 9 9 8 8 9 9 8 8 7 6 5 4 4 3 3 3 4 4 2 2 1 1 1 1 1 0 1 2 2 2 2 2 2 2 2 2 2
2 4 5 5 4 1 4 4 5 5 8 7 8 8 9 9 8 8 7 6 5 5 4 4 4 3 3 4 4 4 4 3 3 2 2 0 0 1 0 1 1 2 2 2 2 2 3 2 2
5 6 3 4 3 4 3 2 6 7 6 8 9 9 8 8 8 6 6 6 6 6 6 5 5 4 3 4 4 4 4 4 4 4 4 2 1 1 2 1 1 1 1 2 2 2 2 2 2
4 8 6 4 4 4 3 3 5 4 2 4 6 7 7 7 7 7 7 7 7 7 6 5 5 4 4 4 4 3 3 3 3 3 3 3 3 3 2 2 1 1 1 1 2 2 2 2 2
4 4 7 6 2 1 3 3 4 1 1 3 5 6 7 8 8 8 6 6 7 6 6 7 6 4 4 4 3 3 3 3 3 3 3 2 2 2 2 2 2 1 1 1 1 1 2 1 1
5 6 5 4 3 2 3 3 4 5 5 5 5 6 7 7 7 7 6 6 5 5 5 5 5 5 4 3 3 3 2 2 2 2 3 3 2 2 2 2 1 1 1 1 1 1 1 1 1
2 2 4 4 4 4 3 5 5 9 9 9 8 7 7 7 7 7 6 5 4 4 3 4 3 3 3 3 2 1 1 1 1 2 2 3 2 2 3 3 2 1 1 0 1 1 1 1 1
5 5 6 4 3 4 3 6 5 6 7 9 8 7 6 7 6 6 5 4 4 4 4 4 3 3 3 3 3 2 2 1 1 1 1 1 2 2 2 3 2 2 1 1 2 1 1 1 1
Wind_Direction
272 304 94 61 55 55 52 34 128 63 55 56 74 84 86 72 88 129 174 142 135 134 128 118 112 108 104 99 98 95 95 97 95 95 93 89 86 84 85 85 83 81 79 78 78 76 77 81 84
22 81 67 57 76 74 16 4 112 98 121 108 80 78 79 75 88 114 131 144 138 132 127 121 117 110 104 100 97 96 99 102 102 99 96 92 89 88 87 87 85 83 81 80 80 79 78 77 77
345 74 76 67 86 135 149 183 143 116 95 94 83 58 75 99 107 134 154 144 129 123 124 125 120 113 108 101 94 97 107 113 113 107 102 97 92 88 88 86 84 85 84 82 81 80 79 77 76
62 46 57 72 77 155 156 169 135 108 67 65 98 70 54 56 123 136 138 133 125 124 127 128 121 117 111 99 90 97 105 116 119 112 106 100 94 91 90 87 85 86 84 82 82 82 81 79 77
67 72 64 63 62 19 107 131 109 101 94 83 96 92 60 27 100 120 126 128 128 129 130 131 124 120 113 101 91 98 103 112 116 113 108 103 98 96 94 91 88 85 85 84 82 84 81 80 79
58 68 80 89 82 43 59 83 93 91 94 92 96 103 93 85 108 123 127 131 130 133 132 134 128 124 117 107 98 98 102 106 111 112 109 104 100 98 96 94 92 88 87 84 83 84 83 82 80
103 89 114 140 113 86 146 92 91 99 89 92 115 106 123 138 137 131 129 128 130 131 126 126 129 129 123 116 110 107 107 108 110 113 112 107 103 100 98 97 95 93 89 85 82 83 83 80 80
123 100 71 62 119 129 187 105 100 103 94 92 106 126 160 189 155 128 122 122 125 128 131 128 129 131 134 130 122 116 115 115 116 117 117 115 111 106 103 100 97 97 94 88 84 81 83 84 79
93 83 103 185 149 179 124 99 65 67 87 63 71 123 155 151 132 118 111 108 122 134 138 135 131 140 149 147 135 127 123 121 123 125 122 117 113 112 108 107 103 101 96 89 86 82 83 80 77
91 118 190 188 153 144 90 99 112 83 74 71 72 85 119 129 132 133 135 137 136 143 145 141 144 153 152 141 130 133 127 123 124 127 127 126 126 129 123 116 111 102 90 81 81 81 75 70 71
129 152 170 147 141 131 105 76 85 113 98 141 141 140 136 127 132 142 145 147 147 146 139 143 148 150 137 119 129 128 120 123 133 135 136 134 128 123 116 103 91 82 76 66 60 65 68 73 78
123 151 148 135 112 110 114 108 84 108 161 159 144 142 139 133 139 147 148 149 134 115 134 148 143 137 133 125 128 131 122 119 128 146 140 134 126 124 128 127 110 87 83 76 66 70 80 84 85
125 154 131 125 105 118 108 104 105 101 130 125 127 128 133 136 143 148 141 127 118 119 143 161 151 144 138 125 132 129 128 131 140 137 138 140 135 135 135 144 131 107 101 100 93 88 90 92 93
171 159 169 153 127 129 115 105 103 133 134 130 135 139 142 142 151 139 130 135 144 140 144 137 130 138 130 128 132 135 133 130 126 135 139 141 141 140 137 122 115 107 106 111 109 102 96 94 96
146 116 339 217 164 166 111 65 149 161 141 139 146 144 145 153 155 155 162 158 163 159 140 137 134 123 122 126 128 123 113 108 103 117 122 119 126 131 129 114 102 108 106 107 98 89 89 90 85
61 95 227 257 177 172 126 185 226 174 148 152 156 153 150 161 167 163 157 149 150 134 123 134 119 111 117 119 107 99 97 93 96 101 102 99 110 119 124 115 109 109 108 107 104 90 86 81 81
23 185 222 265 195 158 142 191 221 185 158 165 169 172 165 156 166 167 155 150 148 142 133 125 114 114 113 110 97 91 94 88 91 90 87 90 102 110 118 117 109 103 100 102 113 95 103 103 90
220 210 215 218 217 150 153 198 210 189 168 170 175 175 170 168 183 176 155 152 146 139 131 125 119 124 118 105 87 70 74 77 78 84 86 94 98 104 111 113 101 101 95 86 92 99 85 103 111
197 199 232 237 204 156 176 203 215 197 176 176 181 179 181 184 190 176 161 151 139 132 127 125 123 137 128 116 111 106 101 84 72 75 92 101 103 109 113 101 98 95 101 114 112 106 91 73 82
198 207 248 269 195 169 185 231 228 196 191 186 185 186 184 175 168 183 176 155 152 156 146 140 139 145 148 143 146 155 152 142 143 92 84 108 118 123 129 122 115 110 101 91 89 96 103 76 75
205 203 215 215 94 83 124 307 267 249 213 191 188 186 182 179 178 184 182 170 157 160 165 165 166 155 154 140 116 93 68 47 34 18 32 40 117 124 130 135 138 131 123 128 124 122 123 136 9
234 230 206 189 136 256 165 243 266 232 218 203 201 193 188 185 180 180 178 171 173 181 174 168 165 154 152 141 133 136 142 160 215 215 199 360 123 121 128 134 140 144 140 150 169 142 136 137 159
212 222 196 175 159 307 296 172 274 221 214 219 209 199 194 184 176 178 181 178 178 175 171 168 158 153 158 154 151 153 155 183 183 171 115 59 14 121 135 149 144 153 160 173 176 155 146 143 161
154 55 37 52 78 286 248 188 263 228 214 209 207 199 194 186 181 185 186 174 171 169 164 156 156 164 165 165 164 165 170 173 148 162 153 186 299 305 316 167 160 172 177 182 185 172 158 157 158
83 83 36 1 7 253 264 184 251 252 211 195 193 192 189 180 178 178 178 174 172 171 169 162 159 172 181 177 180 185 186 176 174 178 178 184 200 239 256 208 174 194 202 193 170 158 166 158 158
173 142 157 195 219 275 323 241 266 272 200 181 175 175 171 170 174 178 180 178 178 179 174 168 169 177 187 192 196 192 184 179 189 187 175 184 201 215 215 187 170 185 203 195 164 161 176 158 166
156 174 171 147 189 246 281 289 315 26 125 157 151 149 164 174 177 179 175 172 175 176 178 176 175 183 191 193 190 192 195 181 184 186 182 188 204 203 189 182 170 152 143 145 158 172 190 170 180
160 153 103 124 167 242 279 257 233 214 200 176 165 171 179 176 176 176 174 177 180 182 182 176 176 183 189 182 184 187 201 198 187 173 181 188 203 193 159 157 159 155 159 149 147 160 180 153 194
155 138 130 139 157 166 232 263 231 202 190 177 178 177 176 169 169 170 170 171 167 160 157 164 173 173 174 177 168 142 168 184 165 170 197 200 201 190 175 175 169 170 166 136 135 173 148 157 208
170 174 149 156 214 181 189 263 284 200 180 166 167 167 161 158 157 154 154 147 146 150 153 157 161 163 173 162 142 141 140 135 148 186 230 212 196 204 197 182 171 176 178 167 149 161 152 171 206
Height
1503 1502 1502 1502 1505 1516 1518 1513 1507 1505 1505 1505 1504 1505 1509 1514 1517 1525 1522 1520 1521 1521 1520 1520 1520 1519 1518 1517 1516 1516 1515 1515 1515 1514 1514 1514 1515 1515 1514 1514 1514 1513 1513 1512 1512 1512 1512 1511 1511
1503 1502 1503 1503 1513 1525 1522 1511 1508 1505 1505 1506 1506 1508 1511 1515 1517 1519 1519 1521 1521 1521 1521 1520 1520 1519 1518 1517 1516 1514 1513 1513 1514 1514 1515 1515 1515 1515 1515 1515 1515 1514 1514 1514 1513 1513 1513 1513 1512
1503 1503 1504 1507 1516 1523 1518 1510 1507 1505 1505 1505 1509 1511 1514 1517 1518 1519 1520 1521 1522 1521 1521 1521 1520 1519 1518 1517 1514 1511 1509 1510 1512 1514 1515 1515 1516 1516 1516 1516 1515 1515 1515 1515 1514 1514 1514 1514 1514
1503 1504 1506 1513 1517 1513 1510 1507 1505 1506 1506 1507 1509 1514 1517 1519 1519 1520 1521 1522 1522 1522 1522 1521 1521 1520 1519 1516 1513 1508 1505 1505 1509 1513 1515 1516 1516 1517 1517 1517 1517 1516 1516 1516 1516 1516 1515 1515 1515
1504 1505 1512 1519 1516 1511 1507 1506 1505 1506 1508 1510 1510 1516 1519 1520 1520 1521 1522 1523 1523 1523 1523 1522 1522 1521 1519 1517 1513 1508 1505 1505 1509 1513 1516 1517 1518 1518 1518 1518 1518 1518 1517 1517 1517 1517 1517 1517 1517
1505 1507 1520 1524 1517 1511 1508 1507 1506 1507 1509 1511 1513 1516 1521 1522 1521 1522 1523 1524 1524 1524 1524 1524 1523 1522 1521 1519 1516 1513 1511 1511 1513 1516 1518 1519 1519 1519 1519 1520 1519 1519 1519 1519 1519 1518 1518 1518 1518
1506 1511 1519 1519 1517 1514 1510 1508 1508 1508 1510 1513 1513 1517 1521 1523 1523 1523 1524 1525 1525 1525 1525 1525 1524 1523 1522 1521 1520 1519 1517 1517 1518 1519 1520 1521 1521 1521 1521 1521 1521 1521 1521 1520 1520 1520 1520 1520 1520
1505 1511 1517 1518 1517 1515 1509 1508 1509 1509 1512 1514 1514 1516 1520 1523 1523 1524 1525 1525 1526 1526 1526 1526 1525 1525 1524 1523 1523 1522 1521 1521 1522 1522 1522 1523 1523 1523 1523 1523 1523 1523 1522 1522 1522 1522 1522 1522 1521
1506 1516 1522 1517 1515 1513 1509 1509 1511 1512 1512 1514 1515 1516 1519 1522 1523 1524 1525 1526 1526 1527 1527 1527 1526 1526 1526 1525 1525 1524 1524 1524 1524 1524 1524 1524 1525 1525 1525 1525 1525 1524 1524 1524 1524 1523 1523 1523 1523
1506 1518 1516 1511 1510 1510 1510 1510 1511 1513 1514 1516 1516 1518 1520 1521 1523 1524 1525 1525 1526 1527 1527 1527 1527 1527 1527 1526 1526 1526 1526 1526 1525 1525 1525 1526 1526 1526 1526 1527 1526 1526 1526 1526 1525 1525 1525 1525 1524
1506 1512 1509 1508 1508 1509 1510 1511 1511 1513 1517 1517 1517 1518 1520 1522 1523 1524 1525 1526 1526 1527 1528 1528 1528 1528 1528 1528 1527 1527 1527 1527 1527 1527 1527 1527 1527 1527 1528 1528 1528 1528 1528 1527 1527 1527 1526 1526 1526
1507 1507 1507 1508 1508 1509 1509 1511 1513 1513 1516 1517 1517 1518 1520 1522 1524 1525 1526 1527 1527 1528 1528 1528 1528 1528 1528 1528 1528 1528 1528 1528 1528 1528 1528 1528 1528 1528 1529 1529 1529 1529 1529 1529 1528 1528 1528 1528 1528
1507 1508 1507 1508 1508 1509 1510 1511 1513 1515 1516 1517 1518 1519 1521 1522 1524 1525 1526 1527 1528 1528 1528 1528 1528 1528 1529 1529 1529 1529 1529 1529 1529 1528 1529 1529 1529 1529 1529 1530 1530 1530 1530 1530 1530 1530 1529 1529 1529
1506 1507 1507 1508 1508 1509 1511 1513 1514 1517 1517 1518 1519 1520 1521 1522 1524 1525 1526 1526 1527 1528 1528 1528 1529 1529 1529 1529 1529 1529 1529 1529 1529 1529 1529 1529 1529 1530 1530 1530 1531 1531 1531 1531 1531 1531 1530 1530 1530
1505 1507 1509 1508 1507 1509 1511 1516 1516 1516 1517 1518 1519 1520 1521 1522 1523 1524 1525 1526 1527 1527 1528 1528 1529 1529 1529 1529 1529 1529 1529 1529 1529 1529 1529 1530 1530 1530 1530 1530 1531 1531 1531 1531 1531 1531 1531 1531 1531
1506 1511 1516 1509 1507 1508 1514 1524 1516 1515 1516 1517 1518 1520 1521 1522 1523 1524 1525 1526 1526 1527 1527 1528 1529 1529 1529 1529 1529 1529 1529 1529 1530 1529 1529 1530 1530 1530 1530 1530 1531 1531 1531 1531 1531 1531 1531 1531 1531
1513 1519 1518 1512 1506 1508 1513 1520 1515 1515 1515 1516 1517 1518 1519 1521 1522 1523 1524 1525 1526 1526 1527 1528 1528 1528 1529 1529 1529 1529 1529 1529 1529 1529 1530 1530 1530 1530 1530 1530 1530 1531 1531 1531 1531 1531 1531 1531 1531
1518 1517 1516 1514 1508 1509 1514 1516 1513 1514 1514 1515 1516 1517 1518 1519 1521 1522 1523 1524 1525 1526 1526 1527 1527 1528 1528 1528 1529 1529 1529 1529 1529 1529 1529 1529 1529 1529 1529 1530 1530 1530 1530 1530 1530 1531 1531 1531 1531
1508 1511 1514 1511 1505 1509 1514 1515 1513 1512 1513 1514 1515 1515 1517 1518 1520 1522 1522 1524 1525 1525 1526 1526 1526 1527 1527 1527 1528 1528 1528 1529 1529 1529 1529 1529 1529 1529 1529 1529 1529 1529 1529 1529 1530 1530 1530 1530 1531
1506 1512 1513 1509 1504 1508 1513 1514 1511 1510 1510 1511 1512 1514 1515 1517 1519 1520 1521 1522 1523 1524 1525 1525 1525 1526 1526 1526 1527 1527 1528 1528 1528 1528 1528 1528 1528 1528 1528 1528 1528 1528 1528 1528 1528 1529 1529 1529 1530
1506 1509 1510 1510 1506 1507 1513 1518 1513 1510 1509 1510 1510 1511 1513 1514 1516 1518 1520 1521 1522 1523 1523 1524 1525 1525 1525 1526 1526 1526 1527 1527 1527 1527 1527 1527 1527 1527 1527 1527 1527 1527 1527 1527 1528 1528 1528 1528 1529
1508 1501 1502 1505 1512 1519 1515 1530 1517 1511 1510 1509 1509 1510 1511 1513 1514 1516 1518 1519 1520 1521 1522 1523 1524 1524 1525 1525 1525 1525 1525 1525 1525 1525 1525 1525 1526 1526 1526 1526 1526 1526 1526 1526 1527 1527 1527 1528 1528
1500 1497 1499 1503 1510 1518 1518 1526 1521 1511 1511 1508 1506 1507 1509 1510 1512 1514 1516 1517 1518 1520 1521 1522 1523 1523 1524 1524 1524 1524 1524 1524 1524 1524 1524 1524 1524 1524 1525 1525 1525 1525 1525 1525 1525 1525 1526 1526 1527
1494 1499 1504 1510 1517 1528 1520 1524 1523 1512 1506 1504 1503 1504 1506 1508 1510 1512 1514 1516 1517 1518 1519 1520 1521 1521 1522 1522 1522 1522 1522 1522 1522 1522 1522 1523 1523 1523 1523 1523 1523 1523 1523 1523 1524 1524 1524 1524 1525
1498 1513 1528 1530 1535 1531 1516 1520 1517 1502 1497 1498 1500 1501 1503 1506 1508 1510 1512 1514 1515 1516 1517 1518 1519 1520 1520 1521 1521 1521 1521 1521 1521 1521 1521 1521 1522 1521 1521 1522 1522 1522 1522 1522 1522 1522 1523 1523 1523
1500 1510 1528 1535 1537 1530 1518 1520 1510 1497 1495 1496 1498 1499 1502 1504 1506 1508 1510 1511 1513 1514 1516 1517 1517 1518 1519 1519 1519 1519 1520 1519 1519 1520 1520 1520 1520 1520 1520 1520 1520 1520 1521 1520 1520 1521 1521 1521 1521
1500 1507 1508 1521 1525 1530 1525 1515 1505 1497 1497 1497 1498 1499 1501 1503 1505 1507 1509 1510 1511 1512 1513 1514 1515 1516 1517 1517 1517 1518 1518 1518 1518 1518 1518 1518 1518 1519 1519 1519 1519 1519 1519 1519 1519 1519 1519 1519 1519
1492 1498 1511 1520 1529 1535 1526 1518 1514 1503 1499 1497 1498 1499 1500 1502 1504 1505 1507 1509 1510 1511 1512 1513 1514 1515 1515 1515 1516 1516 1516 1517 1517 1517 1517 1517 1517 1517 1517 1517 1517 1517 1517 1517 1517 1517 1517 1516 1516
1495 1499 1506 1517 1521 1531 1533 1522 1497 1496 1494 1495 1496 1497 1498 1500 1502 1504 1506 1507 1508 1510 1511 1511 1512 1513 1513 1514 1514 1514 1515 1515 1515 1515 1515 1515 1515 1515 1515 1515 1515 1515 1515 1515 1514 1514 1514 1514 1514
1490 1494 1503 1517 1519 1521 1526 1518 1491 1490 1490 1492 1494 1496 1498 1499 1501 1503 1504 1506 1507 1508 1509 1509 1510 1510 1511 1512 1512 1513 1513 1513 1513 1513 1513 1513 1513 1513 1513 1513 1512 1512 1513 1513 1512 1512 1512 1511 1511